1493762400.92,39177,13.19,74008.8,-1.73,-29.13,-27.77,0,*52
1493762402.15,39178,13.19,74012.0,-1.73,-29.07,-27.71,0,*5E
1493762403.38,39179,13.13,74008.0,-1.73,-29.23,-27.77,0,*5F
1493762404.63,39180,13.19,74010.0,-1.73,-29.29,-27.89,0,*52
1493762405.87,39181,13.19,74014.0,-1.73,-29.23,-27.89,0,*59
1493762407.13,39182,13.19,74008.8,-1.73,-29.13,-27.89,0,*59
1493762408.36,39183,13.19,74008.3,-1.73,-29.23,-27.89,0,*5B
1493762409.6,39184,13.19,74010.8,-1.75,-29.45,-28.09,0,*5D
1493762410.85,39185,13.13,74010.3,-1.73,-29.29,-27.93,0,*5C
1493762412.14,39186,13.19,74012.5,-1.73,-29.39,-28.05,0,*5E
1493762413.4,39187,13.19,74012.5,-1.73,-29.39,-27.93,0,*5F
1493762414.7,39188,13.19,74012.8,-1.73,-29.39,-28.05,0,*50
1493762415.96,39189,13.19,74010.0,-1.73,-29.39,-27.93,0,*51
1493762417.24,39190,13.19,74012.3,-1.73,-29.29,-28.05,0,*58
1493762418.49,39191,13.19,74012.3,-1.73,-29.29,-27.93,0,*59
1493762419.71,39192,13.19,74012.5,-1.75,-29.23,-27.93,0,*56
1493762420.99,39193,13.19,74012.3,-1.73,-29.39,-28.09,0,*56
1493762422.23,39194,13.19,74012.3,-1.71,-29.45,-28.09,0,*58
1493762423.49,39195,13.19,74014.0,-1.73,-29.45,-28.09,0,*5B
1493762424.76,39196,13.19,74012.3,-1.73,-29.45,-28.09,0,*58
1493762426.02,39197,13.19,74014.0,-1.73,-29.45,-28.09,0,*59
1493762427.26,39198,13.19,74014.0,-1.71,-29.45,-28.21,0,*5E
1493762428.52,39199,13.19,74012.0,-1.73,-29.45,-28.09,0,*57
1493762429.79,39200,13.19,74014.8,-1.73,-29.57,-28.25,0,*59
1493762431.05,39201,13.19,74012.5,-1.73,-29.45,-28.25,0,*5B
1493762432.32,39202,13.19,74014.3,-1.73,-29.45,-28.21,0,*5C
1493762433.57,39203,13.19,74012.5,-1.75,-29.51,-28.15,0,*59
1493762434.83,39204,13.19,74012.0,-1.73,-29.45,-28.09,0,*50
1493762436.06,39205,13.19,74012.5,-1.73,-29.45,-28.37,0,*5C
1493762437.3,39206,13.19,74012.0,-1.73,-29.57,-28.37,0,*5C
1493762438.56,39207,13.19,74014.3,-1.73,-29.45,-28.25,0,*5D
1493762439.8,39208,13.19,74010.0,-1.73,-29.57,-28.37,0,*52
1493762441.06,39209,13.19,74018.8,-1.73,-29.45,-28.43,0,*53
1493762442.32,39210,13.19,74010.5,-1.75,-29.51,-28.43,0,*58
1493762443.59,39211,13.19,74012.0,-1.73,-29.45,-28.25,0,*5A
1493762444.86,39212,13.13,74008.0,-1.75,-29.51,-28.25,0,*5A
1493762446.1,39213,13.19,74012.0,-1.75,-29.61,-28.47,0,*5C
1493762447.36,39214,13.19,74012.3,-1.73,-29.45,-28.43,0,*5F
1493762448.59,39215,13.19,74014.0,-1.73,-29.57,-28.37,0,*5E
1493762449.84,39216,13.19,74014.5,-1.75,-29.51,-28.31,0,*5B
1493762451.08,39217,13.19,74012.0,-1.75,-29.45,-28.25,0,*5A
1493762452.32,39218,13.19,74012.5,-1.73,-29.57,-28.37,0,*53
1493762453.57,39219,13.19,74008.8,-1.73,-29.73,-28.53,0,*56
1493762454.83,39220,13.19,74008.8,-1.73,-29.61,-28.43,0,*5E
1493762456.09,39221,13.19,74012.0,-1.73,-29.57,-28.43,0,*5A
1493762457.32,39222,13.19,74010.5,-1.73,-29.61,-28.53,0,*5D
1493762458.6,39223,13.19,74014.0,-1.73,-29.73,-28.59,0,*55
1493762459.85,39224,13.19,74014.0,-1.75,-29.67,-28.63,0,*58
1493762461.09,39225,13.19,74016.8,-1.75,-29.61,-28.59,0,*56
1493762462.32,39226,13.19,74012.0,-1.75,-29.61,-28.43,0,*5E
1493762463.56,39227,13.19,74014.0,-1.73,-29.57,-28.53,0,*5D
1493762464.81,39228,13.19,74012.0,-1.73,-29.79,-28.75,0,*5A
1493762466.02,39229,13.19,74010.8,-1.75,-29.79,-28.69,0,*50
1493762467.24,39230,13.19,74012.0,-1.75,-29.83,-28.85,0,*5F
1493762468.51,39231,13.19,74012.5,-1.73,-29.73,-28.75,0,*58
1493762469.77,39232,13.19,74008.5,-1.75,-29.89,-28.79,0,*54
1493762471.03,39233,13.19,74012.8,-1.75,-29.89,-28.79,0,*55
1493762472.29,39234,13.19,74014.0,-1.73,-29.61,-28.59,0,*50
1493762473.53,39235,13.19,74010.5,-1.75,-29.61,-28.47,0,*58
1493762474.77,39236,13.19,74012.5,-1.75,-29.61,-28.63,0,*5D
1493762476.04,39237,13.19,74008.3,-1.73,-29.57,-28.63,0,*5F
1493762477.3,39238,13.19,74010.3,-1.73,-29.57,-28.63,0,*50
1493762478.57,39239,13.19,74014.3,-1.75,-29.51,-28.59,0,*58
1493762479.83,39240,13.19,74012.0,-1.73,-29.57,-28.59,0,*56
1493762481.1,39241,13.19,74010.8,-1.73,-29.45,-28.59,0,*54
1493762482.36,39242,13.19,74008.8,-1.75,-29.51,-28.47,0,*5B
1493762483.63,39243,13.19,74010.3,-1.75,-29.51,-28.59,0,*55
1493762484.9,39244,13.19,74006.3,-1.75,-29.51,-28.59,0,*52
1493762486.17,39245,13.19,74010.3,-1.73,-29.57,-28.63,0,*5A
1493762487.43,39246,13.19,74010.3,-1.73,-29.61,-28.63,0,*5C
1493762488.68,39247,13.19,74008.3,-1.75,-29.51,-28.69,0,*52
1493762489.94,39248,13.19,74008.3,-1.73,-29.45,-28.59,0,*5D
1493762491.2,39249,13.19,74010.3,-1.73,-29.45,-28.59,0,*5C
1493762492.47,39250,13.19,74010.0,-1.73,-29.57,-28.63,0,*5E
1493762493.7,39251,13.19,74006.0,-1.75,-29.61,-28.79,0,*57
1493762494.97,39252,13.19,74010.0,-1.75,-29.51,-28.63,0,*5C
1493762496.24,39253,13.19,74014.5,-1.73,-29.45,-28.63,0,*5E
1493762497.5,39254,13.19,74008.0,-1.73,-29.57,-28.63,0,*5A
1493762498.75,39255,13.19,74012.0,-1.73,-29.61,-28.75,0,*59
1493762500.02,39256,13.19,74014.3,-1.73,-29.57,-28.63,0,*58
1493762501.25,39257,13.19,74012.3,-1.75,-29.61,-28.79,0,*51
1493762502.48,39258,13.19,74008.0,-1.75,-29.79,-28.79,0,*57
1493762503.74,39259,13.19,74008.5,-1.73,-29.61,-28.79,0,*59
1493762504.95,39260,13.19,74008.8,-1.75,-29.67,-28.85,0,*50
1493762506.23,39261,13.19,74010.3,-1.73,-29.73,-28.91,0,*57
1493762507.49,39262,13.19,74010.0,-1.73,-29.57,-28.91,0,*52
1493762508.75,39263,13.19,74010.8,-1.73,-29.61,-28.91,0,*56
1493762510.01,39264,13.19,74012.5,-1.73,-29.57,-28.79,0,*52
1493762511.27,39265,13.19,74008.3,-1.73,-29.57,-28.79,0,*53
1493762512.52,39266,13.19,74012.3,-1.73,-29.73,-28.97,0,*56
1493762513.77,39267,13.19,74010.0,-1.73,-29.83,-29.13,0,*55
1493762515.01,39268,13.19,74012.5,-1.75,-29.67,-29.01,0,*55
1493762516.27,39269,13.19,74010.8,-1.73,-29.57,-28.91,0,*59
1493762517.5,39270,13.19,74008.8,-1.73,-29.57,-28.97,0,*57
1493762518.76,39271,13.19,74012.3,-1.73,-29.61,-28.91,0,*55
1493762520.01,39272,13.19,74012.0,-1.73,-29.79,-29.01,0,*57
1493762521.24,39273,13.19,74010.0,-1.73,-29.83,-29.07,0,*55
1493762522.48,39274,13.19,74012.0,-1.75,-29.83,-29.13,0,*51
1493762523.75,39275,13.19,74014.3,-1.73,-29.73,-28.91,0,*52
1493762524.96,39276,13.19,74010.0,-1.75,-29.67,-28.97,0,*54
1493762526.19,39277,13.19,74012.0,-1.73,-29.61,-29.07,0,*5D
1493762527.45,39278,13.19,74010.8,-1.69,-29.67,-29.01,0,*59
1493762528.66,39279,13.19,74008.3,-1.71,-29.61,-29.07,0,*51
1493762529.89,39280,13.19,74010.3,-1.73,-29.61,-29.07,0,*55
1493762531.16,39281,13.19,74014.3,-1.73,-29.73,-29.13,0,*52
1493762532.43,39282,13.19,74014.5,-1.73,-29.73,-29.13,0,*51
1493762533.66,39283,13.19,74012.0,-1.73,-29.61,-28.97,0,*5E
1493762534.89,39284,13.19,74012.3,-1.75,-29.79,-29.17,0,*5F
1493762536.12,39285,13.19,74014.0,-1.73,-29.83,-29.07,0,*5C
1493762537.35,39286,13.19,74012.0,-1.73,-29.61,-29.07,0,*53
1493762538.62,39287,13.19,74010.5,-1.73,-29.73,-29.13,0,*54
1493762539.85,39288,13.19,74014.5,-1.75,-29.83,-29.29,0,*5B
1493762541.08,39289,13.19,74012.5,-1.75,-29.83,-29.29,0,*5A
1493762542.31,39290,13.19,74010.5,-1.73,-29.79,-29.23,0,*5B
1493762543.56,39291,13.19,74014.0,-1.73,-29.79,-29.29,0,*50
1493762544.78,39292,13.19,74014.0,-1.73,-29.79,-29.23,0,*59
1493762546.01,39293,13.19,74014.3,-1.73,-29.57,-29.07,0,*52
1493762547.24,39294,13.19,74012.0,-1.75,-29.61,-29.13,0,*53
1493762548.48,39295,13.19,74010.5,-1.75,-29.83,-29.35,0,*5A
1493762549.71,39296,13.19,74012.8,-1.75,-29.79,-29.29,0,*51
1493762550.94,39297,13.19,74010.5,-1.75,-29.79,-29.13,0,*59
1493762552.16,39298,13.19,74014.0,-1.75,-29.79,-29.29,0,*5F
1493762553.4,39299,13.19,74014.8,-1.75,-29.67,-29.29,0,*51
1493762554.64,39300,13.19,74012.5,-1.73,-29.73,-29.23,0,*59
1493762555.89,39301,13.19,74010.5,-1.75,-29.67,-29.35,0,*5C
1493762557.12,39302,13.19,74012.8,-1.75,-29.67,-29.29,0,*52
1493762558.35,39303,13.19,74012.3,-1.75,-29.61,-29.17,0,*58
1493762559.59,39304,13.19,74012.0,-1.75,-29.61,-29.17,0,*5F
1493762560.82,39305,13.19,74014.3,-1.75,-29.79,-29.17,0,*57
1493762562.05,39306,13.19,74010.5,-1.75,-29.67,-29.29,0,*56
1493762563.28,39307,13.19,74010.3,-1.75,-29.67,-29.29,0,*57
1493762564.51,39308,13.19,74012.8,-1.75,-29.57,-29.13,0,*52
1493762565.74,39309,13.19,74012.3,-1.75,-29.61,-29.13,0,*56
1493762566.98,39310,13.19,74012.5,-1.75,-29.61,-29.17,0,*5A
1493762568.21,39311,13.19,74012.5,-1.75,-29.61,-29.17,0,*5B
1493762569.44,39312,13.19,74012.8,-1.73,-29.45,-29.07,0,*59
1493762570.7,39313,13.19,74014.5,-1.75,-29.51,-29.17,0,*5A
1493762571.94,39314,13.19,74014.5,-1.73,-29.57,-29.23,0,*5A
1493762573.16,39315,13.19,74012.5,-1.75,-29.79,-29.29,0,*5B
1493762574.4,39316,13.19,74014.3,-1.75,-29.67,-29.29,0,*57
1493762575.62,39317,13.19,74010.3,-1.73,-29.45,-29.23,0,*5A
1493762576.88,39318,13.19,74012.8,-1.73,-29.45,-29.13,0,*56
1493762578.13,39319,13.19,74012.5,-1.73,-29.45,-29.17,0,*53
1493762579.4,39320,13.19,74012.5,-1.75,-29.51,-29.29,0,*57
1493762580.63,39321,13.19,74012.3,-1.75,-29.61,-29.29,0,*55
1493762581.88,39322,13.19,74014.8,-1.73,-29.57,-29.29,0,*55
1493762583.11,39323,13.19,74014.8,-1.75,-29.67,-29.29,0,*51
1493762584.34,39324,13.19,74010.3,-1.75,-29.61,-29.29,0,*50
1493762585.6,39325,13.19,74014.0,-1.73,-29.57,-29.29,0,*52
1493762586.83,39326,13.19,74012.0,-1.73,-29.79,-29.45,0,*57
1493762588.05,39327,13.19,74010.0,-1.73,-29.61,-29.23,0,*5F
1493762589.27,39328,13.19,74012.5,-1.75,-29.61,-29.45,0,*56
1493762590.51,39329,13.19,74010.0,-1.75,-29.67,-29.51,0,*54
1493762591.75,39330,13.19,74012.0,-1.75,-29.67,-29.51,0,*5C
1493762592.97,39331,13.19,74008.8,-1.75,-29.67,-29.45,0,*58
1493762594.21,39332,13.19,74010.8,-1.75,-29.67,-29.51,0,*5E
1493762595.45,39333,13.19,74014.0,-1.75,-29.67,-29.51,0,*5F
1493762596.69,39334,13.19,74012.0,-1.75,-29.79,-29.51,0,*57
1493762597.91,39335,13.19,74010.5,-1.75,-29.67,-29.45,0,*5C
1493762599.12,39336,13.19,74012.3,-1.75,-29.67,-29.45,0,*5F
1493762600.39,39337,13.19,74014.3,-1.75,-29.51,-29.35,0,*5C
1493762601.66,39338,13.19,74014.8,-1.75,-29.51,-29.35,0,*53
1493762602.96,39339,13.19,74012.0,-1.77,-29.51,-29.35,0,*50
1493762604.2,39340,13.19,74012.3,-1.77,-29.61,-29.45,0,*5A
1493762605.5,39341,13.19,74016.0,-1.77,-29.51,-29.35,0,*5F
1493762606.8,39342,13.19,74012.5,-1.77,-29.51,-29.35,0,*5C
1493762608.09,39343,13.19,74014.3,-1.77,-29.51,-29.35,0,*5D
1493762609.39,39344,13.19,74012.5,-1.77,-29.51,-29.35,0,*5A
1493762610.63,39345,13.19,74012.5,-1.75,-29.61,-29.51,0,*58
1493762611.87,39346,13.19,74012.8,-1.75,-29.45,-29.35,0,*5F
1493762613.12,39347,13.19,74012.3,-1.75,-29.45,-29.35,0,*5E
1493762614.42,39348,13.19,74010.3,-1.77,-29.51,-29.35,0,*56
1493762615.71,39349,13.19,74012.3,-1.77,-29.51,-29.35,0,*57
1493762616.97,39350,13.19,74008.3,-1.77,-29.45,-29.29,0,*57
1493762618.24,39351,13.19,74012.3,-1.77,-29.61,-29.51,0,*5F
1493762619.51,39352,13.19,74012.0,-1.77,-29.45,-29.35,0,*58
1493762620.77,39353,13.19,74012.3,-1.77,-29.45,-29.29,0,*54
1493762622.03,39354,13.19,74010.3,-1.75,-29.35,-29.29,0,*56
1493762623.29,39355,13.19,74012.3,-1.75,-29.35,-29.29,0,*57
1493762624.55,39356,13.19,74012.5,-1.77,-29.45,-29.29,0,*51
1493762625.82,39357,13.19,74014.8,-1.77,-29.45,-29.35,0,*5D
1493762627.05,39358,13.19,74008.0,-1.75,-29.45,-29.29,0,*5D
1493762628.29,39359,13.19,74012.3,-1.75,-29.45,-29.35,0,*51
1493762629.54,39360,13.19,74012.5,-1.75,-29.45,-29.51,0,*59
1493762630.75,39361,13.19,74014.5,-1.75,-29.45,-29.45,0,*5D
1493762632.0,39362,13.19,74014.8,-1.75,-29.45,-29.35,0,*59
1493762633.24,39363,13.19,74012.0,-1.75,-29.45,-29.35,0,*58
1493762634.46,39364,13.19,74012.0,-1.75,-29.45,-29.45,0,*58
1493762635.74,39365,13.19,74010.5,-1.73,-29.39,-29.39,0,*5F
1493762636.96,39366,13.19,74012.3,-1.71,-29.45,-29.45,0,*5E
1493762638.22,39367,13.19,74010.8,-1.75,-29.51,-29.29,0,*54
1493762639.5,39368,13.19,74010.0,-1.77,-29.29,-29.29,0,*56
1493762640.74,39369,13.19,74010.3,-1.75,-29.45,-29.35,0,*52
1493762641.98,39370,13.19,74010.8,-1.75,-29.45,-29.35,0,*5A
1493762643.22,39371,13.19,74014.0,-1.75,-29.45,-29.51,0,*59
1493762644.5,39372,13.19,74016.3,-1.75,-29.35,-29.35,0,*5F
1493762645.76,39373,13.19,74010.0,-1.75,-29.35,-29.29,0,*53
1493762647.01,39374,13.19,74012.0,-1.75,-29.17,-29.29,0,*54
1493762648.29,39375,13.19,74010.0,-1.77,-29.29,-29.29,0,*5A
1493762649.53,39376,13.19,74008.5,-1.75,-29.45,-29.51,0,*5E
1493762650.77,39377,13.19,74012.8,-1.75,-29.45,-29.51,0,*5F
1493762652.02,39378,13.19,74014.3,-1.75,-29.35,-29.45,0,*52
1493762653.29,39379,13.19,74010.5,-1.75,-29.35,-29.35,0,*54
1493762654.51,39380,13.19,74012.3,-1.75,-29.45,-29.45,0,*52
1493762655.75,39381,13.19,74012.3,-1.75,-29.45,-29.51,0,*56
1493762656.96,39382,13.19,74014.8,-1.75,-29.45,-29.61,0,*56
1493762658.2,39383,13.19,74012.0,-1.75,-29.35,-29.45,0,*56
1493762659.46,39384,13.19,74014.3,-1.75,-29.17,-29.29,0,*5B
1493762660.74,39385,13.19,74014.3,-1.77,-29.29,-29.29,0,*55
1493762661.99,39386,13.19,74014.3,-1.75,-29.29,-29.17,0,*59
1493762663.25,39387,13.19,74012.0,-1.75,-29.13,-29.17,0,*51
1493762664.51,39388,13.19,74014.0,-1.75,-29.29,-29.51,0,*55
1493762665.77,39389,13.19,74014.8,-1.75,-29.29,-29.35,0,*56
1493762667.03,39390,13.19,74010.3,-1.73,-29.29,-29.45,0,*5F
1493762668.29,39391,13.19,74012.0,-1.75,-29.29,-29.35,0,*5F
1493762669.56,39392,13.19,74014.3,-1.75,-29.17,-29.35,0,*51
1493762670.82,39393,13.19,74012.0,-1.75,-29.17,-29.35,0,*50
1493762672.02,39394,13.19,74014.8,-1.75,-29.07,-29.23,0,*51
1493762673.28,39395,13.19,74012.0,-1.75,-29.17,-29.29,0,*5B
1493762674.53,39396,13.19,74010.5,-1.75,-29.29,-29.29,0,*55
1493762675.77,39397,13.19,74010.5,-1.75,-29.17,-29.45,0,*53
1493762677.02,39398,13.19,74010.0,-1.75,-29.17,-29.29,0,*56
1493762678.28,39399,13.19,74012.8,-1.75,-29.01,-29.17,0,*5D
1493762679.53,39400,13.19,74010.5,-1.75,-29.01,-29.13,0,*5E
1493762680.78,39401,13.19,74014.5,-1.75,-29.13,-29.29,0,*55
1493762682.04,39402,13.19,74010.8,-1.75,-29.13,-29.17,0,*5B
1493762683.3,39403,13.19,74014.3,-1.75,-29.13,-29.17,0,*5A
1493762684.55,39404,13.25,74018.0,-1.73,-29.23,-29.39,0,*54
1493762685.81,39405,13.19,74012.8,-1.75,-29.17,-29.35,0,*58
1493762687.05,39406,13.19,74014.0,-1.75,-29.17,-29.45,0,*5C
1493762688.28,39407,13.19,74010.0,-1.73,-29.23,-29.45,0,*5C
1493762689.52,39408,13.19,74010.5,-1.75,-29.29,-29.45,0,*5F
1493762690.76,39409,13.19,74008.8,-1.75,-29.45,-29.51,0,*51
1493762691.98,39410,13.19,74014.0,-1.75,-29.45,-29.61,0,*5A
1493762693.24,39411,13.19,74012.3,-1.75,-29.29,-29.35,0,*50
1493762694.5,39412,13.19,74010.8,-1.75,-29.17,-29.35,0,*5E
1493762695.75,39413,13.19,74010.5,-1.75,-29.13,-29.29,0,*56
1493762697.02,39414,13.19,74008.0,-1.75,-29.17,-29.35,0,*58
1493762698.31,39415,13.19,74008.8,-1.77,-29.35,-29.51,0,*59
1493762699.56,39416,13.19,74014.3,-1.75,-29.35,-29.45,0,*5D
1493762700.79,39417,13.19,74012.0,-1.75,-29.13,-29.45,0,*58
1493762702.04,39418,13.19,74014.8,-1.75,-29.13,-29.29,0,*5D
1493762703.28,39419,13.19,74010.5,-1.75,-29.13,-29.45,0,*56
1493762704.57,39420,13.19,74012.5,-1.77,-29.17,-29.51,0,*5F
1493762705.86,39421,13.19,74012.5,-1.77,-29.13,-29.35,0,*58
1493762707.15,39422,13.19,74012.8,-1.77,-29.01,-29.35,0,*58
1493762708.44,39423,13.19,74010.5,-1.77,-29.17,-29.35,0,*5E
1493762709.73,39424,13.25,74014.8,-1.77,-29.17,-29.35,0,*59
1493762710.99,39425,13.19,74008.5,-1.77,-29.29,-29.45,0,*52
1493762712.23,39426,13.19,74014.8,-1.75,-29.17,-29.45,0,*5E
1493762713.46,39427,13.19,74010.5,-1.75,-29.29,-29.45,0,*52
1493762714.75,39428,13.19,74012.5,-1.77,-29.29,-29.51,0,*5A
1493762716.01,39429,13.19,74014.5,-1.77,-29.17,-29.45,0,*53
1493762717.3,39430,13.19,74012.5,-1.77,-29.13,-29.35,0,*58
1493762718.59,39431,13.19,74014.8,-1.77,-29.01,-29.29,0,*57
1493762719.86,39432,13.19,74010.3,-1.77,-29.13,-29.29,0,*57
1493762721.15,39433,13.19,74012.5,-1.77,-29.13,-29.35,0,*5B
1493762722.41,39434,13.19,74010.8,-1.75,-29.01,-29.29,0,*50
1493762723.64,39435,13.19,74012.3,-1.75,-28.97,-29.13,0,*56
1493762724.9,39436,13.19,74014.5,-1.77,-28.85,-29.17,0,*50
1493762726.15,39437,13.25,74016.5,-1.77,-28.85,-29.13,0,*55
1493762727.41,39438,13.19,74008.5,-1.77,-28.97,-29.17,0,*5D
1493762728.67,39439,13.19,74014.0,-1.75,-29.01,-29.29,0,*5D
1493762729.92,39440,13.19,74012.0,-1.77,-28.97,-29.29,0,*5F
1493762731.18,39441,13.19,74010.5,-1.73,-28.91,-29.23,0,*56
1493762732.42,39442,13.19,74012.8,-1.75,-28.97,-29.35,0,*52
1493762733.67,39443,13.25,74016.0,-1.73,-28.91,-29.23,0,*54
1493762734.91,39444,13.19,74008.5,-1.75,-28.85,-29.17,0,*57
1493762736.17,39445,13.19,74010.5,-1.75,-29.01,-29.35,0,*5B
1493762737.42,39446,13.19,74012.3,-1.75,-29.13,-29.29,0,*56
1493762738.68,39447,13.19,74012.0,-1.75,-29.01,-29.29,0,*54
1493762739.91,39448,13.19,74014.8,-1.75,-28.85,-29.13,0,*5F
1493762741.17,39449,13.19,74014.5,-1.75,-28.91,-29.17,0,*5F
1493762742.43,39450,13.19,74012.3,-1.75,-29.01,-29.17,0,*5F
1493762743.69,39451,13.19,74012.0,-1.75,-29.01,-29.17,0,*5E
1493762744.95,39452,13.19,74010.5,-1.75,-29.01,-29.17,0,*5D
1493762746.18,39453,13.19,74014.8,-1.75,-28.97,-29.17,0,*52
1493762747.43,39454,13.19,74014.3,-1.75,-29.13,-29.29,0,*55
1493762748.66,39455,13.19,74012.0,-1.75,-28.97,-29.13,0,*50
1493762749.89,39456,13.19,74010.0,-1.75,-28.97,-29.13,0,*53
1493762751.14,39457,13.19,74008.5,-1.75,-29.01,-29.29,0,*55
1493762752.37,39458,13.19,74008.3,-1.73,-28.97,-29.23,0,*58
1493762753.63,39459,13.19,74012.3,-1.75,-29.01,-29.17,0,*56
1493762754.85,39460,13.19,74008.3,-1.75,-28.97,-29.13,0,*56
1493762756.06,39461,13.19,74010.8,-1.75,-28.97,-29.07,0,*52
1493762757.29,39462,13.19,74010.8,-1.75,-28.85,-29.13,0,*57
1493762758.52,39463,13.19,74010.8,-1.75,-28.97,-29.17,0,*51
1493762759.77,39464,13.19,74014.0,-1.73,-28.97,-29.13,0,*54
1493762761.02,39465,13.19,74008.0,-1.75,-29.13,-29.29,0,*57
1493762762.25,39466,13.19,74012.3,-1.75,-28.97,-29.13,0,*50
1493762763.48,39467,13.19,74010.8,-1.75,-28.97,-29.17,0,*55
1493762764.73,39468,13.19,74012.0,-1.75,-29.13,-29.29,0,*5A
1493762765.99,39469,13.19,74012.0,-1.75,-29.01,-29.29,0,*58
1493762767.25,39470,13.19,74014.5,-1.75,-29.13,-29.35,0,*5E
1493762768.51,39471,13.19,74014.3,-1.75,-29.13,-29.35,0,*5F
1493762769.75,39472,13.25,74014.5,-1.75,-29.17,-29.45,0,*5F
1493762771.0,39473,13.19,74010.5,-1.73,-29.23,-29.29,0,*55
1493762772.26,39474,13.19,74010.3,-1.75,-29.17,-29.35,0,*5E
1493762773.52,39475,13.19,74010.3,-1.75,-29.17,-29.35,0,*5F
1493762774.77,39476,13.19,74008.3,-1.75,-29.13,-29.29,0,*55
1493762776.04,39477,13.19,74014.0,-1.75,-29.13,-29.35,0,*59
1493762777.26,39478,13.19,74012.3,-1.73,-28.97,-29.23,0,*5A
1493762778.51,39479,13.19,74010.8,-1.75,-29.17,-29.29,0,*5E
1493762779.74,39480,13.19,74010.0,-1.73,-29.07,-29.07,0,*53
1493762781.0,39481,13.19,74012.3,-1.75,-29.13,-29.17,0,*50
1493762782.24,39482,13.19,74010.5,-1.73,-28.97,-29.13,0,*5C
1493762783.5,39483,13.19,74014.0,-1.75,-29.13,-29.17,0,*52
1493762784.75,39484,13.25,74014.5,-1.75,-29.13,-29.17,0,*55
1493762786.01,39485,13.19,74014.0,-1.75,-29.01,-29.17,0,*57
1493762787.27,39486,13.19,74014.0,-1.75,-29.17,-29.29,0,*5E
1493762788.53,39487,13.19,74012.3,-1.75,-29.13,-29.35,0,*56
1493762789.78,39488,13.19,74012.0,-1.75,-29.17,-29.29,0,*50
1493762791.05,39489,13.19,74008.8,-1.75,-29.17,-29.35,0,*5C
1493762792.3,39490,13.25,74014.8,-1.75,-29.13,-29.17,0,*50
1493762793.55,39491,13.19,74012.3,-1.73,-28.97,-29.13,0,*5E
1493762794.8,39492,13.19,74014.3,-1.75,-29.13,-29.13,0,*56
1493762796.05,39493,13.19,74012.0,-1.75,-29.13,-29.17,0,*53
1493762797.31,39494,13.19,74012.0,-1.75,-29.17,-29.17,0,*50
1493762798.54,39495,13.19,74010.0,-1.73,-29.23,-29.23,0,*57
1493762799.79,39496,13.19,74014.8,-1.75,-29.13,-29.29,0,*5B
1493762801.05,39497,13.19,74012.0,-1.75,-29.01,-29.13,0,*50
1493762802.3,39498,13.19,74010.8,-1.75,-29.13,-29.17,0,*58
1493762803.53,39499,13.19,74010.8,-1.73,-29.07,-29.07,0,*5B
1493762804.79,39500,13.25,74014.3,-1.75,-29.01,-29.17,0,*5B
1493762806.05,39501,13.19,74010.5,-1.75,-29.01,-29.17,0,*5A
1493762807.3,39502,13.19,74010.8,-1.75,-29.01,-29.13,0,*5D
1493762808.56,39503,13.19,74012.3,-1.75,-29.01,-29.13,0,*5C
1493762809.81,39504,13.25,74014.8,-1.75,-29.01,-29.13,0,*5B
1493762811.06,39505,13.19,74008.3,-1.75,-29.13,-29.13,0,*59
1493762812.32,39506,13.19,74010.5,-1.75,-29.01,-29.17,0,*5D
1493762813.53,39507,13.19,74012.0,-1.71,-29.07,-29.07,0,*5F
1493762814.78,39508,13.25,74012.8,-1.75,-29.13,-29.13,0,*54
1493762816.03,39509,13.19,74010.5,-1.75,-29.13,-29.13,0,*55
1493762817.28,39510,13.25,74014.3,-1.75,-29.13,-29.13,0,*5D
1493762818.51,39511,13.19,74012.0,-1.73,-28.97,-28.97,0,*5A
1493762819.77,39512,13.19,74012.8,-1.75,-29.13,-29.01,0,*5C
1493762820.97,39513,13.19,74012.8,-1.71,-28.97,-29.07,0,*52
1493762822.19,39514,13.19,74010.5,-1.73,-29.07,-29.07,0,*5F
1493762823.42,39515,13.19,74012.0,-1.73,-28.97,-28.97,0,*5E
1493762824.67,39516,13.19,74014.3,-1.75,-29.29,-29.13,0,*52
1493762825.88,39517,13.25,74018.0,-1.71,-29.07,-29.07,0,*5E
1493762827.13,39518,13.19,74010.3,-1.73,-29.13,-29.07,0,*56
1493762828.36,39519,13.19,74008.5,-1.75,-28.97,-29.01,0,*5A
1493762829.59,39520,13.19,74008.0,-1.73,-29.07,-28.97,0,*50
1493762830.81,39521,13.19,74010.5,-1.73,-29.07,-29.07,0,*59
1493762832.02,39522,13.19,74010.8,-1.71,-29.07,-29.07,0,*58
1493762833.27,39523,13.19,74010.8,-1.75,-29.13,-29.13,0,*5D
1493762834.53,39524,13.19,74012.8,-1.75,-29.29,-29.17,0,*57
1493762835.75,39525,13.19,74010.3,-1.73,-29.23,-29.07,0,*5B
1493762837.0,39526,13.19,74008.3,-1.73,-29.23,-29.13,0,*5D
1493762838.28,39527,13.19,74010.5,-1.73,-29.29,-29.29,0,*5F
1493762839.55,39528,13.19,74014.3,-1.73,-29.29,-29.29,0,*50
1493762840.8,39529,13.19,74012.8,-1.73,-29.39,-29.23,0,*5A
1493762842.06,39530,13.19,74014.5,-1.75,-29.29,-29.13,0,*56
1493762843.28,39531,13.19,74012.8,-1.73,-29.23,-29.07,0,*5E
1493762844.54,39532,13.19,74012.8,-1.75,-29.29,-29.17,0,*50
1493762845.78,39533,13.25,74014.5,-1.75,-29.45,-29.35,0,*5B
1493762847.04,39534,13.19,74008.0,-1.75,-29.35,-29.29,0,*56
1493762848.3,39535,13.19,74008.5,-1.75,-29.01,-29.13,0,*59
1493762849.57,39536,13.19,74008.3,-1.73,-29.13,-29.13,0,*5F
1493762850.82,39537,13.19,74012.0,-1.73,-29.29,-29.23,0,*54
1493762852.07,39538,13.19,74010.0,-1.73,-29.13,-29.07,0,*54
1493762853.31,39539,13.25,74014.0,-1.73,-29.13,-29.07,0,*55
1493762854.54,39540,13.19,74012.8,-1.73,-29.07,-28.97,0,*56
1493762855.8,39541,13.19,74010.3,-1.75,-29.17,-29.01,0,*5E
1493762857.03,39542,13.19,74010.0,-1.71,-29.23,-29.13,0,*5D
1493762858.29,39543,13.19,74010.3,-1.75,-29.35,-29.29,0,*56
1493762859.53,39544,13.25,74014.3,-1.75,-29.45,-29.35,0,*5B
1493762860.81,39545,13.19,74010.8,-1.73,-29.29,-29.13,0,*52
1493762862.04,39546,13.19,74012.3,-1.75,-29.17,-28.97,0,*57
1493762863.3,39547,13.19,74008.3,-1.75,-29.17,-29.01,0,*58
1493762864.56,39548,13.19,74012.3,-1.75,-29.29,-29.01,0,*5A
1493762865.82,39549,13.25,74014.0,-1.75,-29.35,-29.13,0,*55
1493762867.05,39550,13.19,74008.0,-1.75,-29.45,-29.13,0,*5A
1493762868.3,39551,13.25,74012.5,-1.75,-29.29,-29.13,0,*51
1493762869.58,39552,13.19,74010.5,-1.73,-29.13,-28.91,0,*56
1493762870.83,39553,13.19,74012.5,-1.73,-29.13,-28.97,0,*51
1493762872.09,39554,13.19,74010.3,-1.75,-29.17,-29.01,0,*5A
1493762873.32,39555,13.19,74008.3,-1.73,-29.23,-28.97,0,*54
1493762874.55,39556,13.19,74014.3,-1.73,-29.23,-28.97,0,*57
1493762875.83,39557,13.19,74010.0,-1.73,-29.13,-28.91,0,*53
1493762877.09,39558,13.19,74008.0,-1.73,-29.23,-28.91,0,*5F
1493762878.35,39559,13.19,74010.8,-1.73,-29.23,-28.91,0,*5E
1493762879.61,39560,13.19,74012.0,-1.75,-29.29,-29.01,0,*50
1493762880.86,39561,13.25,74014.0,-1.73,-29.29,-28.97,0,*59
1493762882.12,39562,13.19,74012.0,-1.73,-29.39,-28.97,0,*5B
1493762883.38,39563,13.19,74010.5,-1.75,-29.35,-29.01,0,*5E
1493762884.64,39564,13.19,74010.5,-1.73,-29.39,-29.07,0,*55
1493762885.9,39565,13.19,74014.5,-1.73,-29.39,-29.07,0,*54
1493762887.13,39566,13.19,74006.8,-1.75,-29.45,-29.01,0,*5C
1493762888.37,39567,13.25,74014.5,-1.75,-29.45,-29.01,0,*5D
1493762889.65,39568,13.19,74012.0,-1.73,-29.39,-29.13,0,*5C
1493762890.92,39569,13.19,74010.3,-1.75,-29.35,-29.17,0,*53
1493762892.16,39570,13.19,74010.5,-1.75,-29.45,-29.01,0,*5B
1493762893.42,39571,13.19,74010.8,-1.75,-29.35,-29.01,0,*5D
1493762894.66,39572,13.19,74010.8,-1.75,-29.35,-28.97,0,*50
1493762895.92,39573,13.19,74010.3,-1.75,-29.29,-29.01,0,*52
1493762897.13,39574,13.19,74008.8,-1.75,-29.45,-28.97,0,*51
1493762898.37,39575,13.19,74012.5,-1.75,-29.35,-28.97,0,*57
1493762899.61,39576,13.19,74012.5,-1.75,-29.35,-28.97,0,*54